Radioactive Concentration measured by Seawater Radiation Monitor near Fukushima Daiichi Nuclear Power Station
Date,Time,Cs137(Bq/L),Cs134(Bq/L),Total β(Bq/L)
2017/10/13,00:00,1.2,0.076,ND
2017/10/13,00:10,1.1,0.12,ND
2017/10/13,00:20,1.1,0.12,ND
2017/10/13,00:30,1.1,0.11,ND
2017/10/13,00:40,1.2,0.10,ND
2017/10/13,00:50,1.1,0.11,ND
2017/10/13,01:00,1.1,0.12,ND
2017/10/13,01:10,1.1,0.11,ND
2017/10/13,01:20,1.1,0.11,ND
2017/10/13,01:30,1.1,0.11,ND
2017/10/13,01:40,1.1,0.11,ND
2017/10/13,01:50,1.1,0.10,ND
2017/10/13,02:00,1.1,0.089,ND
2017/10/13,02:10,1.1,0.095,ND
2017/10/13,02:20,1.1,0.090,ND
2017/10/13,02:30,1.1,0.054,ND
2017/10/13,02:40,1.1,0.054,ND
2017/10/13,02:50,1.1,0.051,ND
2017/10/13,03:00,1.1,0.042,ND
2017/10/13,03:10,1.1,0.040,ND
2017/10/13,03:20,1.1,0.048,ND
2017/10/13,03:30,1.2,0.048,ND
2017/10/13,03:40,1.2,0.048,ND
2017/10/13,03:50,1.1,0.091,ND
2017/10/13,04:00,1.1,0.085,ND
2017/10/13,04:10,1.1,0.085,ND
2017/10/13,04:20,1.1,0.074,ND
2017/10/13,04:30,1.1,0.079,ND
2017/10/13,04:40,1.1,0.077,ND
2017/10/13,04:50,1.1,0.071,ND
2017/10/13,05:00,1.2,0.049,ND
2017/10/13,05:10,1.1,0.052,ND
2017/10/13,05:20,1.1,0.057,ND
2017/10/13,05:30,0.93,0.081,ND
2017/10/13,05:40,0.90,0.080,8.8
2017/10/13,05:50,0.89,0.083,8.8
2017/10/13,06:00,0.88,0.077,ND
2017/10/13,06:10,0.88,0.074,ND
2017/10/13,06:20,0.88,0.067,ND
2017/10/13,06:30,0.85,0.081,ND
2017/10/13,06:40,0.82,0.081,ND
2017/10/13,06:50,0.81,0.074,ND
2017/10/13,07:00,0.82,0.081,ND
2017/10/13,07:10,0.85,0.066,ND
2017/10/13,07:20,0.83,0.070,ND
2017/10/13,07:30,0.85,0.054,ND
2017/10/13,07:40,0.84,0.062,ND
2017/10/13,07:50,0.84,0.060,ND
2017/10/13,08:00,0.84,0.060,ND
2017/10/13,08:10,0.96,0.033,ND
2017/10/13,08:20,0.88,0.070,ND
2017/10/13,08:30,1.0,0.042,ND
2017/10/13,08:40,1.0,0.043,ND
2017/10/13,08:50,1.1,0.040,ND
2017/10/13,09:00,1.1,0.038,ND
2017/10/13,09:10,1.1,0.038,ND
2017/10/13,09:20,1.1,0.037,ND
2017/10/13,09:30,1.1,0.044,ND
2017/10/13,09:40,1.1,0.046,ND
2017/10/13,09:50,1.1,0.053,ND
2017/10/13,10:00,0.96,0.086,ND
2017/10/13,10:10,0.96,0.091,ND
2017/10/13,10:20,1.1,0.066,ND
2017/10/13,10:30,1.1,0.061,ND
2017/10/13,10:40,0.97,0.087,ND
2017/10/13,10:50,0.97,0.086,ND
2017/10/13,11:00,0.98,0.088,ND
2017/10/13,11:10,0.95,0.091,ND
2017/10/13,11:20,0.98,0.082,ND
2017/10/13,11:30,1.0,0.080,ND
2017/10/13,11:40,1.0,0.090,ND
2017/10/13,11:50,1.0,0.092,ND
2017/10/13,12:00,1.0,0.085,ND
2017/10/13,12:10,1.1,0.086,ND
2017/10/13,12:20,1.1,0.087,ND
2017/10/13,12:30,1.1,0.086,ND
2017/10/13,12:40,1.1,0.082,ND
2017/10/13,12:50,1.0,0.080,ND
2017/10/13,13:00,1.0,0.081,ND
2017/10/13,13:10,1.0,0.086,ND
2017/10/13,13:20,1.2,0.050,ND
2017/10/13,13:30,1.2,0.045,ND
2017/10/13,13:40,1.2,0.049,ND
2017/10/13,13:50,1.2,0.043,ND
2017/10/13,14:00,1.2,0.040,ND
2017/10/13,14:10,1.3,0.038,ND
2017/10/13,14:20,1.2,0.049,ND
2017/10/13,14:30,1.2,0.057,ND
2017/10/13,14:40,1.2,0.052,ND
2017/10/13,14:50,1.2,0.053,ND
2017/10/13,15:00,1.1,0.063,ND
2017/10/13,15:10,0.98,0.10,ND
2017/10/13,15:20,0.97,0.099,ND
2017/10/13,15:30,0.95,0.096,ND
2017/10/13,15:40,0.96,0.090,ND
2017/10/13,15:50,1.0,0.068,ND
2017/10/13,16:00,1.0,0.050,ND
2017/10/13,16:10,1.0,0.040,ND
2017/10/13,16:20,1.0,0.031,ND
2017/10/13,16:30,0.99,0.035,ND
2017/10/13,16:40,0.87,0.074,ND
2017/10/13,16:50,0.91,0.059,ND
2017/10/13,17:00,0.91,0.057,ND
2017/10/13,17:10,0.88,0.064,ND
2017/10/13,17:20,0.83,0.072,ND
2017/10/13,17:30,0.84,0.066,ND
2017/10/13,17:40,0.92,0.034,ND
2017/10/13,17:50,0.88,0.038,ND
2017/10/13,18:00,0.89,0.044,ND
2017/10/13,18:10,0.93,0.046,ND
2017/10/13,18:20,1.0,0.046,ND
2017/10/13,18:30,1.1,0.040,ND
2017/10/13,18:40,1.1,0.041,ND
2017/10/13,18:50,1.2,0.047,ND
2017/10/13,19:00,1.2,0.049,ND
2017/10/13,19:10,1.2,0.048,ND
2017/10/13,19:20,1.2,0.048,ND
2017/10/13,19:30,1.2,0.048,ND
2017/10/13,19:40,1.2,0.038,ND
2017/10/13,19:50,1.2,0.032,ND
2017/10/13,20:00,1.2,0.036,ND
2017/10/13,20:10,1.1,0.034,ND
2017/10/13,20:20,1.1,0.033,ND
2017/10/13,20:30,1.1,0.036,ND
2017/10/13,20:40,1.0,0.037,ND
2017/10/13,20:50,1.0,0.042,ND
2017/10/13,21:00,1.0,0.041,ND
2017/10/13,21:10,0.97,0.056,ND
2017/10/13,21:20,0.99,0.049,ND
2017/10/13,21:30,0.97,0.052,ND
2017/10/13,21:40,0.98,0.049,ND
2017/10/13,21:50,0.98,0.043,ND
2017/10/13,22:00,0.97,0.042,ND
2017/10/13,22:10,0.98,0.042,ND
2017/10/13,22:20,0.95,0.042,ND
2017/10/13,22:30,0.97,0.037,ND
2017/10/13,22:40,0.97,0.035,ND
2017/10/13,22:50,0.95,0.030,ND
2017/10/13,23:00,0.95,0.028,ND
2017/10/13,23:10,0.98,ND,ND
2017/10/13,23:20,0.99,ND,ND
2017/10/13,23:30,0.98,ND,ND
2017/10/13,23:40,0.99,ND,ND
2017/10/13,23:50,1.0,ND,ND
